#timestamp,LO_Frequency,Hit,StdDev 
1615784415.1,286046997.1,N
1615784435.9,286046997.9,N
1615784455.7,286046997.8,N
1615784475.5,286046997.7,N
1615784495.4,286046996.8,N
1615784515.2,286046995.0,N
1615784535.1,286046994.9,N
1615784536.0,286046994.9,N
1615784555.8,286046997.0,N
1615784575.6,286046994.9,N
1615784595.5,286046996.8,N
1615784615.3,286046995.3,N
1615784635.1,286046995.4,N
1615784655.9,286046996.2,N
1615784675.7,286046993.7,N
1615784695.6,286046993.3,N
1615784715.4,286046993.8,N
1615784735.2,286046995.9,N
1615784755.1,286046996.0,N
1615784756.0,286046996.0,N
1615784775.8,286046995.6,N
1615784795.6,286046997.5,N
1615784815.5,286046996.2,N
1615784835.3,286046993.3,Y
1615784855.2,286046998.5,P
1615784875.9,286046998.2,N
1615784895.7,286046998.2,N
1615784915.6,286046999.9,N
1615784935.4,286047002.3,N
1615784955.2,286047003.5,N
1615784975.1,286047005.9,N
1615784976.0,286047005.9,N
1615784995.8,286047003.7,N
1615785015.7,286047005.1,N
1615785035.5,286047006.0,N
1615785055.3,286047005.4,N
1615785075.2,286047007.5,N
1615785125.0,286047009.0,E
1615785135.9,286047004.3,N
1615785155.7,286046998.7,P
1615785175.5,286046998.2,N
1615785195.4,286047002.8,N
1615785215.2,286047002.2,N
1615785235.1,286047002.6,N
1615785236.0,286047002.6,N
1615785255.8,286047001.4,N
1615785275.6,286047001.4,N
1615785295.5,286047002.1,N
1615785315.3,286047000.8,N
1615785335.1,286047001.6,N
1615785355.9,286047004.3,N
1615785375.7,286047002.6,N
1615785395.6,286047004.2,N
1615785415.4,286047003.1,N
1615785435.2,286047001.5,N
1615785455.1,286046999.7,N
1615785456.0,286046999.7,N
1615785475.8,286047002.1,N
1615785495.6,286047000.2,N
1615785515.5,286047000.2,N
1615785535.3,286046999.7,N
1615785555.1,286046998.1,N
1615785575.9,286046998.1,N
1615785595.7,286047000.0,N
1615785615.6,286046998.3,N
1615785635.4,286046998.8,N
1615785655.2,286047000.0,N
1615785675.1,286047002.0,N
1615785676.0,286047002.0,N
1615785695.8,286047004.3,N
1615785715.6,286047004.2,N
1615785735.5,286047005.3,N
1615785755.3,286047005.1,N
1615785775.2,286047007.5,Y
1615785795.9,286047004.1,P
1615785815.7,286047002.1,N
1615785835.6,286046999.9,N
1615785855.4,286047001.0,N
1615785875.2,286046999.8,N
1615785895.1,286047001.8,N
1615785896.0,286047001.8,N
1615785915.8,286047004.4,Y
1615785935.7,286047001.8,P
1615785955.5,286047003.8,P
1615785975.3,286047001.5,N
1615785995.2,286046999.8,N
1615786015.0,286047000.6,N
1615786015.9,286047000.6,N
1615786035.8,286047000.2,N
1615786055.6,286047000.2,N
1615786075.4,286046998.1,N
1615786095.3,286046998.9,N
1615786115.1,286046999.5,N
1615786116.0,286046999.5,N
1615786135.8,286046997.6,N
1615786155.7,286047001.1,N
1615786175.5,286046999.5,N
1615786195.3,286046997.9,N
1615786215.2,286046995.0,Y
1615786235.0,286046997.3,P
1615786235.9,286046997.3,N
1615786255.8,286046996.6,N
1615786275.6,286047001.1,N
1615786295.4,286047002.4,N
1615786315.3,286047004.2,N
1615786335.1,286047003.9,N
1615786355.8,286046999.9,N
1615786375.7,286047003.0,N
1615786395.5,286047005.1,N
1615786415.4,286047006.2,N
1615786435.2,286047004.7,N
1615786455.0,286047005.2,N
1615786455.9,286047005.2,N
1615786475.8,286047004.2,N
1615786495.6,286047003.1,N
1615786515.4,286047000.0,N
1615786535.3,286046998.9,N
1615786555.1,286046996.8,N
1615786575.9,286046997.7,N
1615786595.7,286046993.3,N
1615786615.5,286046991.7,N
1615786635.4,286046992.6,N
1615786655.2,286046990.6,N
1615786675.0,286046991.4,N
1615786675.9,286046991.4,N
1615786695.8,286046989.0,N
1615786715.6,286046989.6,N
1615786735.5,286046988.2,N
1615786755.3,286046987.2,N
1615786775.1,286046985.5,N
1615786795.9,286046986.3,N
1615786815.7,286046984.5,N
1615786835.5,286046984.4,N
1615786855.4,286046985.2,N
1615786875.2,286046984.9,N
1615786895.0,286046982.5,N
1615786896.0,286046982.5,N
1615786915.8,286046984.4,N
1615786935.6,286046986.3,N
1615786955.5,286046986.4,N
1615786975.3,286046988.4,N
1615786995.1,286046987.0,N
1615787015.9,286046988.4,N
1615787035.7,286046986.9,N
1615787055.5,286046988.1,N
1615787075.4,286046989.5,N
1615787095.2,286046986.9,Y
1615787115.1,286046999.2,P
1615787116.0,286046999.2,N
1615787135.8,286046996.8,N
1615787155.6,286046997.6,N
1615787175.5,286046995.0,N
1615787195.3,286046996.3,N
1615787215.2,286046993.8,N
1615787235.9,286046993.5,N
1615787255.7,286046993.3,N
1615787275.6,286046996.0,N
1615787295.4,286046995.1,N
1615787315.2,286046995.9,N
1615787335.1,286046993.8,N
1615787336.0,286046993.8,N
1615787355.8,286046997.4,N
1615787375.7,286046997.8,N
1615787395.5,286046995.6,N
1615787415.3,286046995.4,N
1615787435.2,286046994.9,N
1615787455.0,286046994.9,N
1615787455.9,286046994.9,N
1615787475.7,286046997.8,N
1615787495.6,286046996.2,N
1615787515.4,286046993.3,Y
1615787535.3,286047000.8,P
1615787555.1,286046998.3,N
1615787556.0,286046998.3,N
1615787575.8,286047000.0,N
1615787595.7,286047000.7,N
1615787615.5,286047000.4,N
1615787635.3,286047001.3,N
1615787655.2,286047004.2,N
1615787675.0,286047003.6,N
1615787675.9,286047003.6,N
1615787695.8,286047001.4,N
1615787715.6,286047003.7,N
1615787735.4,286047002.1,N
1615787755.3,286047002.0,N
1615787775.1,286047000.2,N
1615787795.9,286046999.7,N
1615787815.7,286047000.2,N
1615787835.5,286047000.5,N
1615787855.4,286047002.3,N
1615787875.2,286047002.4,N
1615787895.0,286047002.7,N
1615787895.9,286047002.7,N
1615787915.8,286047002.3,N
1615787935.6,286047002.6,N
1615787955.5,286047001.6,N
1615787975.3,286047001.9,N
1615787995.1,286047001.6,N
